STARLINK-1131, 45047

Orbit data source: Space-Track

STARLINK-1131, 45047 is a payload satellite owned by SpaceX/Seattle (US) in LEO that was launched on Wed, 29 Jan 2020 UTC via an FALCON 9 launch vehicle from the Air Force Eastern Test Range (AFETR). Payload-class satellites include a variety of spacecraft equipped with specific instruments for various scientific and technological missions. These include communications satellites like Starlink; space stations such as the ISS; scientific satellites like the Hubble; Earth observation satellites from companies like Planet Labs, Umbra, and HawkEye 360; GPS; miniature CubeSats for education and research; and military/defense satellites.

Loading next visibility...
Identifier
45047, 2020-006D
Orbit
LEO
Last TLE update
14 hours ago
Origin
Manufacturer
SpaceX/Seattle
Mission
Operational Commercial Communications
Bus & Motor
STARLINK, Unknown motor
Mass
260 kg wet, ~248 kg dry
Launch date (UTC)
2020-01-29 (5 years ago)
Launch vehicle
FALCON 9
Launch site
Air Force Eastern Test Range (AFETR)
Object type
Payload
Rocket body
Debris
Shape & HBR
Box + 1 Pan, 8.86 m
Radar Cross Section
13.562 m², Large (>1 m²)

Expand to show TLE details & history

TLE from 14 hours ago
0 STARLINK-1131
1 45047U 20006D   25183.70065985 -.00000987  00000-0 -47365-4 0  9992
2 45047  53.0563 329.4010 0001311  91.7322 268.3817 15.06391576298774
Epoch: 2025-07-02T16:48Z
TLE epoch observation values (Epoch: 2025-07-02T16:48:57.011Z)
Latitude
-0.00001°
Longitude
156.18545°
Altitude
548.142 km
Speed
7.589 km/s
True Right ascension
21h 57m 36s
True Declination
0° 00' 00"
Sunlit
Object was in full shadow at epoch
Visualization orbit readout
Latitude
-26.23465°
Longitude
-4.74657°
Altitude
555.4 km
Speed
7.584 km/s
Apparent Right ascension
09h 05m 25s
Apparent Declination
-38° 42' 17"
Sunlit
Object is in daylight
Visualization observer readout
Local Sidereal Time
18:15:31
Azimuth
258.182° W
Elevation
-57.427°
Doppler factor
1
Orbital elements
Apogee altitude
548.416 km
Perigee altitude
546.6 km
Semi-major axis
6,925.645 km
Eccentricity
0.00013
Inclination
53.0563°
RAAN
329.401°
Arg. of periapsis
91.7322°
True anomaly
Unknown
Mean anomaly
268.3817°
Eccentric anomaly
Unknown
Mean motion
3.76576 °/min
Orbital period
95.6 mins
BSTAR
-0.000047365
Loading maneuver chart data...
Loading SW <> Apogee altitude chart data...

STARLINK-1131 Visibility forecast

Observer location: undefined°, undefined°

Span
Click to sort rows by Start time (UTC) header in descending order
Start Az.
Max El. time (UTC)
Max El. Az.
Max El.
End time (UTC)
End Az.
7 mins2025-07-03 12:04:50.745Z213.706° SW2025-07-03 12:08:50.745Z123.898° SE39.754°2025-07-03 12:11:50.745Z60.298° ENE
5 mins2025-07-03 13:46:50.745Z297.584° NW2025-07-03 13:48:50.745Z344.853° N23.883°2025-07-03 13:51:50.745Z32.184° NE
6 mins2025-07-03 18:47:50.745Z324.109° NNW2025-07-03 18:49:50.745Z12.923° NNE39.436°2025-07-03 18:53:50.745Z114.944° SE
4 mins2025-07-03 20:27:50.745Z260.882° W2025-07-03 20:29:50.745Z222.573° SW18.289°2025-07-03 20:31:50.745Z190.543° SSW
|